{"data":{"norad_id":82369,"epoch":"2026-09-10T07:22:09.441408Z","epoch_age_seconds":895339,"freshness":"AGED","line1":"1 82369U          26253.30705372  .00000193  00000+0  16071-3 0  9993","line2":"2 82369  98.8892 265.0861 0082201 308.5903  50.7918 13.98303594595120","mean_motion":13.98303594,"eccentricity":0.0082201,"inclination_deg":98.8892,"raan_deg":265.0861,"arg_perigee_deg":308.5903,"mean_anomaly_deg":50.7918,"bstar":0.00016071,"rev_number":59512,"period_min":102.98192797179,"perigee_km":839.85108961894,"apogee_km":959.49978162304,"semimajor_km":7277.812435621,"source":"CELESTRAK","updated_at":"2026-09-20T09:00:32.433235Z"}}